Regional Weather Roundup
Issued by NWS Northern Indiana

Home | Current Version | Previous Version | Graphics & Text | Print | Product List | Glossary On
Versions: 1 2 3 4 5 6 7 8 9 10 11 12 13 14 15 16 17 18 19 20 21 22 23 24 25 26 27 28 29 30 31 32 33 34 35 36 37 38 39 40 41 42 43 44 45 46 47 48 49 50
000
ASUS43 KIWX 040000
RWRIWX

KIWX WEATHER ROUNDUP
NATIONAL WEATHER SERVICE NORTHERN INDIANA
800 PM EDT MON AUG 03 2015

NOTE: "FAIR" INDICATES FEW OR NO CLOUDS BELOW 12,000 FEET WITH NO
SIGNIFICANT WEATHER AND/OR OBSTRUCTIONS TO VISIBILITY.

* THESE STATIONS ARE NOT UNDER NWS QUALITY CONTROL. THEY ALSO MAY NOT
  REPORT WEATHER SUCH AS PRECIPITATION OR FOG.

INZ001>027-040100-
NORTHERN INDIANA

CITY           SKY/WX    TMP DP  RH WIND       PRES   REMARKS
KNOX*          SUNNY     73  52  46 N6        29.87R
SOUTH BEND     CLEAR     76  49  38 NW5       29.88R
6HR MIN TEMP:  76; 6HR MAX TEMP:  80;

ELKHART*       CLEAR     75  46  35 NW6       29.87S
GOSHEN         CLEAR     73  52  47 NW7       29.87R
6HR MIN TEMP:  73; 6HR MAX TEMP:  79;

MONTICELLO*    CLEAR     78  60  52 W8        29.86R
6HR MIN TEMP:  78; 6HR MAX TEMP:  83;

WARSAW*        CLEAR     73  55  53 NW5       29.87R
ANGOLA*        CLEAR     73  66  78 NW5       29.87R
FORT WAYNE     PTCLDY    76  59  55 NW7       29.87R
6HR MIN TEMP:  76; 6HR MAX TEMP:  84;


$$
INZ028>050-040100-
CENTRAL INDIANA

CITY           SKY/WX    TMP DP  RH WIND       PRES   REMARKS
LAFAYETTE      SUNNY     78  60  53 NW6       29.86R
6HR MIN TEMP:  78; 6HR MAX TEMP:  84;

KOKOMO*        CLEAR     81  63  54 NW7       29.86R
6HR MIN TEMP:  81; 6HR MAX TEMP:  84;

MUNCIE*        CLEAR     77  63  61 NW6       29.86S
6HR MIN TEMP:  77; 6HR MAX TEMP:  82;

INDIANAPOLIS   PTCLDY    83  65  54 W12       29.86R
6HR MIN TEMP:  83; 6HR MAX TEMP:  89;


$$
MIZ043>046-050>051-056>058-064>065-071>073-077>080-040100-
SOUTHWEST LOWER MICHIGAN

CITY           SKY/WX    TMP DP  RH WIND       PRES   REMARKS
BATTLE CREEK     N/A    N/A N/A N/A MISG      29.86S
BENTON HARBOR  SUNNY     74  54  49 CALM      29.86S
6HR MIN TEMP:  73; 6HR MAX TEMP:  77;

COLDWATER*     CLEAR     72  48  43 NW7       29.86S
6HR MIN TEMP:  72; 6HR MAX TEMP:  79;

HILLSDALE*     CLEAR     73  49  43 NW10      29.87R
6HR MIN TEMP:  73; 6HR MAX TEMP:  80;

HOLLAND        SUNNY     73  53  49 W7        29.85F
6HR MIN TEMP:  73; 6HR MAX TEMP:  77;

GRAND RAPIDS   PTCLDY    74  49  41 NW12      29.84R
6HR MIN TEMP:  74; 6HR MAX TEMP:  79;

KALAMAZOO      CLEAR     74  50  42 W9        29.86S
6HR MIN TEMP:  74; 6HR MAX TEMP:  80;

STURGIS*       CLEAR     72  52  49 W7        29.87R
THREE RIVERS*  FAIR      73  49  42 NW7       29.87S
6HR MIN TEMP:  73; 6HR MAX TEMP:  80;


$$
OHZ001>008-015>018-024>025-040100-
NORTHWEST OHIO

CITY           SKY/WX    TMP DP  RH WIND       PRES   REMARKS
DEFIANCE       CLEAR     76  52  43 NW12      29.86R
6HR MIN TEMP:  76; 6HR MAX TEMP:  84;

FINDLAY        PTCLDY    79  60  52 W10       29.83R
6HR MIN TEMP:  78; 6HR MAX TEMP:  83;

TOLEDO EXPRESS CLEAR     76  55  48 W12       29.83R
6HR MIN TEMP:  76; 6HR MAX TEMP:  82;

TOLEDO METCALF CLEAR     78  54  43 W13       29.83R
6HR MIN TEMP:  78; 6HR MAX TEMP:  84;

LIMA           MOCLDY    78  62  57 NW10      29.85R
6HR MIN TEMP:  75; 6HR MAX TEMP:  82;


$$
AND FOR LAKE MICHIGAN COASTAL AND OPEN LAKE BUOY OBSERVATIONS

STATION/POSITION TEMP    WIND        PRES    VSBY  WAVE
                 AIR SEA DIR/SP/G                  HT/PER
                 (F)     (DEG/KT/KT) (MB)    (MI)  (FT/S)
CALUMET HARBOR    81     280/  6/ 13   N/A
MICHIGAN CITY     77     360/  2/  3   N/A
BURNS HARBOR      78      50/  5/  6 1011.5S
SAINT JOSEPH      75     280/  2/  4 1011.9S
4 MI NW BRIDGMAN  73 73   20/ 10/ 12   N/A           2/ 3
MICHIGAN CITY     76 75   30/  2/  2   N/A           2/ 4

$$
&&



USA.gov is the U.S. government's official web portal to all federal, state and local government web resources and services.